[[{"header":{"parameterUnit":"m.s-1","parameterCategory":1,"la1":30.2991,"la2":30.254,"lo1":-89.0895,"lo2":-89.0444,"dy":0.0017,"dx":0.0017,"nx":28,"ny":28,"refTime":"2024-10-09T09:00:00:Z","depth":0,"parameterNumber":2,"parameterNumberName":"U-component_of_WINDS"},"data":[0,0,0,0,0,0,0,0,0,0,0,0,0,0,0,0,0,0,0,0,0,0,0,0,0,0,0,0,0,0,0,0,0,0,0,0,0,0,0,0,0,0,0,0,0,0,0,0,0,0,0,0,0,0,0,0,0,0,-2.0978,-2.0978,0,-2.1013,-2.1013,-2.1014,-2.1001,-2.1,-2.1,-2.0999,-2.1035,-2.1037,-2.1038,0,0,0,0,0,0,0,0,0,0,0,0,0,-2.09,-2.0901,-2.0978,-2.0978,-2.0979,-2.1013,-2.1013,-2.1014,-2.1001,-2.1,-2.0999,-2.0999,-2.1034,-2.1036,-2.1038,0,0,0,0,0,0,0,0,0,0,0,0,0,-2.0934,-2.0902,-2.0978,-2.0977,-2.0977,-2.1013,-2.1013,-2.1014,-2.1002,-2.1,-2.0999,-2.0998,-2.1034,-2.1036,-2.1039,-2.1078,0,0,-2.1047,-2.1048,0,0,0,0,0,0,0,0,-2.0932,-2.0937,-2.0976,-2.0977,-2.0977,-2.1002,-2.0999,-2.1036,-2.1002,-2.0992,-2.0999,-2.0997,-2.1025,-2.1028,-2.1037,-2.108,-2.1081,-2.1047,-2.1048,-2.1049,-2.105,0,0,0,0,0,0,0,-2.093,-2.0935,-2.0992,-2.0977,-2.0977,-2.0974,-2.0978,-2.1006,-2.1015,-2.0993,-2.0992,-2.0996,-2.1025,-2.1035,-2.1038,-2.1082,-2.1047,-2.1049,-2.105,-2.1051,-2.1159,-2.1161,0,0,0,0,0,0,-2.0927,-2.0934,-2.0991,-2.0993,-2.0951,-2.0977,-2.0981,-2.0995,-2.1014,-2.1016,-2.0997,-2.0996,-2.1031,-2.1035,-2.1039,-2.1088,-2.1049,-2.1052,-2.1053,-2.1158,-2.116,-2.1161,0,0,0,0,0,0,-2.0926,-2.0932,-2.0989,-2.0963,-2.097,-2.0979,-2.0995,-2.0996,-2.1006,-2.1018,-2.1019,-2.1006,-2.103,-2.1036,-2.1069,-2.1089,-2.1053,-2.1055,-2.1157,-2.1159,-2.116,-2.1184,0,0,0,0,0,0,-2.0923,-2.0932,-2.0947,-2.0963,-2.0971,-2.1018,-2.0996,-2.0998,-2.1011,-2.1009,-2.1026,-2.1028,-2.103,-2.1065,-2.1071,-2.1091,-2.1057,-2.1155,-2.1157,-2.116,-2.1182,-2.1187,-2.1191,0,0,0,0,0,-2.0921,-2.0952,-2.0948,-2.0955,-2.099,-2.1019,-2.1024,-2.1025,-2.1012,-2.1028,-2.1035,-2.1027,-2.1085,-2.1069,-2.1075,-2.1097,-2.1154,-2.1157,-2.116,-2.1179,-2.1186,-2.1191,0,0,0,0,0,0,-2.0938,-2.0954,-2.095,-2.0987,-2.1002,-2.1017,-2.1037,-2.1032,-2.105,-2.1048,-2.1049,-2.1053,-2.1087,-2.1095,-2.1076,-2.1136,-2.1117,-2.1122,-2.113,-2.1136,-2.1141,-2.1139,-2.1059,0,0,0,0,0,-2.0946,-2.0968,-2.0981,-2.1013,-2.1021,-2.1027,-2.104,-2.104,-2.1055,-2.1061,-2.1071,-2.1086,-2.1108,-2.1122,-2.1143,-2.1182,-2.1186,-2.12,-2.1205,-2.1209,-2.1213,-2.1236,-2.1242,-2.1171,-2.1171,-2.1171,0,0,-2.0963,-2.0975,-2.0988,-2.1017,-2.1028,-2.1051,-2.1033,-2.1058,-2.1075,-2.1065,-2.1097,-2.1105,-2.1122,-2.1159,-2.1176,-2.1166,-2.1233,-2.1212,-2.1215,-2.1218,-2.1239,-2.1246,-2.1252,-2.1173,-2.1173,-2.1172,0,0,-2.1006,-2.1017,-2.1045,-2.1057,-2.1074,-2.1079,-2.1085,-2.1101,-2.1106,-2.1139,-2.1132,-2.1152,-2.1189,-2.1202,-2.1213,-2.1261,-2.1256,-2.1268,-2.1293,-2.1315,-2.132,-2.1325,-2.1344,-2.135,-2.1272,-2.1272,-2.1272,0,-2.1025,-2.106,-2.106,-2.1086,-2.1099,-2.1091,-2.112,-2.1131,-2.1154,-2.1164,-2.1153,-2.12,-2.121,-2.1251,-2.1262,-2.1271,-2.128,-2.1266,-2.132,-2.1325,-2.1329,-2.1347,-2.1354,-2.1273,-2.1273,-2.1273,-2.1273,0,-2.1083,-2.1107,-2.1128,-2.1151,-2.1166,-2.1193,-2.1198,-2.1213,-2.1211,-2.1217,-2.125,-2.1263,-2.1286,-2.1295,-2.1293,-2.1335,-2.1329,-2.1319,-2.1301,-2.1338,-2.1354,-2.1361,-2.1275,-2.1275,-2.1274,-2.1274,0,0,-2.1139,-2.1162,-2.117,-2.118,-2.1199,-2.1218,-2.1245,-2.1268,-2.1281,-2.1297,-2.132,-2.1352,-2.1343,-2.1355,-2.1355,-2.1374,-2.1413,-2.1362,-2.1362,-2.1372,-2.1461,-2.147,-2.1478,-2.1409,-2.141,-2.1411,-2.146,0,-2.1185,-2.1232,-2.1233,-2.1277,-2.13,-2.1292,-2.1316,-2.133,-2.1336,-2.1356,-2.1362,-2.1385,-2.137,-2.1378,-2.1397,-2.1404,-2.1431,-2.1401,-2.1431,-2.1432,-2.1429,-2.1486,-2.1496,-2.1542,-2.1467,-2.1468,-2.1469,0,-2.1245,-2.1263,-2.131,-2.1326,-2.1335,-2.1357,-2.1378,-2.1397,-2.1413,-2.1416,-2.143,-2.1427,-2.1455,-2.1435,-2.1473,-2.1453,-2.1465,-2.1471,-2.1472,-2.1477,-2.1454,-2.1493,-2.1556,-2.1564,-2.1479,-2.1478,-2.1477,0,-2.1283,-2.1319,-2.1352,-2.1361,-2.138,-2.1396,-2.1404,-2.1419,-2.1433,-2.1451,-2.146,-2.1482,-2.1494,-2.151,-2.1513,-2.1498,-2.1553,-2.1532,-2.1557,-2.1557,-2.157,-2.1569,-2.1637,-2.1575,-2.1575,-2.1575,-2.1575,0,-2.1335,-2.1364,-2.1369,-2.139,-2.1422,-2.1422,-2.1454,-2.1462,-2.1475,-2.1497,-2.1491,-2.1511,-2.1513,-2.1535,-2.1537,-2.1569,-2.1574,-2.1578,-2.1579,-2.158,-2.1579,-2.1589,-2.1586,-2.1577,-2.1577,-2.1576,-2.1576,0,-2.1383,-2.1388,-2.1423,-2.1439,-2.1443,-2.1466,-2.148,-2.1499,-2.1504,-2.1532,-2.1538,-2.1546,-2.1571,-2.1575,-2.1604,-2.1605,-2.1645,-2.1641,-2.164,-2.164,-2.1665,-2.1663,-2.1742,-2.1753,-2.1683,-2.1683,-2.1684,0,-2.1417,-2.1439,-2.1457,-2.1471,-2.1481,-2.1504,-2.1518,-2.1519,-2.1534,-2.1554,-2.1572,-2.1596,-2.1615,-2.1655,-2.1664,-2.1686,-2.1684,-2.171,-2.1687,-2.1688,-2.1686,-2.1685,-2.1688,-2.1715,-2.1716,-2.1716,-2.1717,0,-2.1477,-2.1478,-2.1499,-2.1521,-2.1538,-2.1555,-2.1571,-2.1583,-2.1587,-2.1604,-2.1629,-2.1645,-2.1674,-2.1699,-2.1721,-2.173,-2.1725,-2.1724,-2.1731,-2.1733,-2.1732,-2.1734,-2.1653,-2.1722,-2.1722,-2.1721,-2.1721,-2.1721,-2.152,-2.154,-2.1556,-2.1579,-2.1592,-2.1607,-2.1626,-2.1634,-2.1655,-2.168,-2.1678,-2.1707,-2.1722,-2.1752,-2.1762,-2.1784,-2.1776,-2.1786,-2.1789,-2.1792,-2.1795,-2.1727,-2.1788,-2.1788,-2.1788,-2.1788,-2.1788,0,-2.1581,-2.1591,-2.1612,-2.1636,-2.1654,-2.1647,-2.1664,-2.1681,-2.1705,-2.172,-2.174,-2.1769,-2.1793,-2.1803,-2.1826,-2.1842,-2.1841,-2.1849,-2.1848,-2.1851,-2.18,-2.1793,-2.185,-2.185,-2.185,-2.185,-2.185,-2.185,-2.1615,-2.1649,-2.1652,-2.1691,-2.1701,-2.1729,-2.1739,-2.1754,-2.1766,-2.1799,-2.1819,-2.1825,-2.1838,-2.1863,-2.1884,-2.1887,-2.1896,-2.1906,-2.1907,-2.186,-2.1854,-2.1848,-2.1841,-2.1907,-2.1908,-2.1956,-2.1956,-2.1957]},{"header":{"parameterUnit":"m.s-1","parameterCategory":1,"la1":30.2991,"la2":30.254,"lo1":-89.0895,"lo2":-89.0444,"dy":0.0017,"dx":0.0017,"nx":28,"ny":28,"refTime":"2024-10-09T09:00:00:Z","depth":0,"parameterNumber":3,"parameterNumberName":"V-component_of_WINDS"},"data":[0,0,0,0,0,0,0,0,0,0,0,0,0,0,0,0,0,0,0,0,0,0,0,0,0,0,0,0,0,0,0,0,0,0,0,0,0,0,0,0,0,0,0,0,0,0,0,0,0,0,0,0,0,0,0,0,0,0,-4.3705,-4.3706,0,-4.3781,-4.3782,-4.3783,-4.3755,-4.3754,-4.3752,-4.375,-4.3824,-4.3828,-4.3831,0,0,0,0,0,0,0,0,0,0,0,0,0,-4.3533,-4.3537,-4.3705,-4.3706,-4.3707,-4.3781,-4.3782,-4.3783,-4.3756,-4.3753,-4.3751,-4.3749,-4.3823,-4.3827,-4.3831,0,0,0,0,0,0,0,0,0,0,0,0,0,-4.3608,-4.3538,-4.3705,-4.3702,-4.3703,-4.3781,-4.3782,-4.3783,-4.3756,-4.3753,-4.3751,-4.3749,-4.3822,-4.3827,-4.3832,-4.3916,0,0,-4.3848,-4.385,0,0,0,0,0,0,0,0,-4.3604,-4.3615,-4.3702,-4.3703,-4.3703,-4.3756,-4.3748,-4.3828,-4.3757,-4.3736,-4.375,-4.3747,-4.3803,-4.381,-4.383,-4.3919,-4.3922,-4.3849,-4.3852,-4.3854,-4.3856,0,0,0,0,0,0,0,-4.3599,-4.3611,-4.3735,-4.3703,-4.3704,-4.3696,-4.3704,-4.3763,-4.3783,-4.3737,-4.3736,-4.3745,-4.3803,-4.3825,-4.3831,-4.3923,-4.3848,-4.3853,-4.3856,-4.3859,-4.4087,-4.4089,0,0,0,0,0,0,-4.3594,-4.3607,-4.3733,-4.3737,-4.3647,-4.3702,-4.371,-4.3742,-4.3782,-4.3786,-4.3747,-4.3744,-4.3817,-4.3825,-4.3834,-4.3936,-4.3854,-4.3859,-4.3862,-4.4084,-4.4087,-4.409,0,0,0,0,0,0,-4.359,-4.3605,-4.373,-4.3672,-4.3687,-4.3707,-4.3743,-4.3745,-4.3766,-4.379,-4.3792,-4.3766,-4.3815,-4.3826,-4.3896,-4.3938,-4.3861,-4.3866,-4.408,-4.4085,-4.4089,-4.414,0,0,0,0,0,0,-4.3586,-4.3604,-4.3637,-4.3673,-4.369,-4.3792,-4.3745,-4.3748,-4.3776,-4.3772,-4.3808,-4.3811,-4.3814,-4.3888,-4.3901,-4.3944,-4.387,-4.4077,-4.4082,-4.4088,-4.4134,-4.4145,-4.4155,0,0,0,0,0,-4.358,-4.3647,-4.3639,-4.3654,-4.3732,-4.3794,-4.3804,-4.3807,-4.3779,-4.3812,-4.3827,-4.381,-4.3931,-4.3896,-4.391,-4.3955,-4.4074,-4.4081,-4.4087,-4.413,-4.4143,-4.4154,0,0,0,0,0,0,-4.3614,-4.3652,-4.3643,-4.3724,-4.3757,-4.379,-4.3831,-4.3821,-4.386,-4.3855,-4.3855,-4.3864,-4.3936,-4.3952,-4.3912,-4.4039,-4.3998,-4.4008,-4.4026,-4.4039,-4.4048,-4.4044,-4.3875,0,0,0,0,0,-4.3631,-4.368,-4.371,-4.3779,-4.3796,-4.3811,-4.3838,-4.3838,-4.387,-4.3883,-4.3904,-4.3935,-4.398,-4.401,-4.4053,-4.4136,-4.4144,-4.4174,-4.4184,-4.4192,-4.4201,-4.4247,-4.4261,-4.4112,-4.4112,-4.4111,0,0,-4.3667,-4.3694,-4.3724,-4.3786,-4.3811,-4.3861,-4.3822,-4.3876,-4.3913,-4.3891,-4.3959,-4.3975,-4.401,-4.4088,-4.4123,-4.4104,-4.4244,-4.42,-4.4207,-4.4211,-4.4255,-4.427,-4.4282,-4.4116,-4.4115,-4.4115,0,0,-4.3758,-4.3783,-4.3844,-4.387,-4.3909,-4.3919,-4.3934,-4.3969,-4.3979,-4.4048,-4.4033,-4.4076,-4.4153,-4.418,-4.4203,-4.4306,-4.4292,-4.4319,-4.4372,-4.4417,-4.4429,-4.444,-4.4478,-4.4491,-4.4327,-4.4328,-4.4328,0,-4.3797,-4.3873,-4.3876,-4.3933,-4.3961,-4.3945,-4.4006,-4.4031,-4.4081,-4.4101,-4.4078,-4.4176,-4.4199,-4.4283,-4.4308,-4.4327,-4.4344,-4.4316,-4.4428,-4.4438,-4.4448,-4.4484,-4.4498,-4.4331,-4.433,-4.433,-4.433,0,-4.392,-4.3973,-4.4017,-4.4069,-4.4102,-4.416,-4.4171,-4.4204,-4.4201,-4.4213,-4.4283,-4.431,-4.4358,-4.4378,-4.4374,-4.4462,-4.4449,-4.4427,-4.4387,-4.4465,-4.4499,-4.4513,-4.4335,-4.4334,-4.4333,-4.4333,0,0,-4.4035,-4.4089,-4.4105,-4.4129,-4.4171,-4.4211,-4.4269,-4.4318,-4.4347,-4.4382,-4.443,-4.4497,-4.4478,-4.4504,-4.4504,-4.4543,-4.4625,-4.4517,-4.4518,-4.4537,-4.4724,-4.4741,-4.4757,-4.4615,-4.4618,-4.462,-4.4722,0,-4.4131,-4.4234,-4.4239,-4.4333,-4.4382,-4.4368,-4.4418,-4.4449,-4.4462,-4.4505,-4.4518,-4.4566,-4.4536,-4.4552,-4.4591,-4.4607,-4.4662,-4.4599,-4.466,-4.4663,-4.4654,-4.4775,-4.4793,-4.4888,-4.4735,-4.4737,-4.4739,0,-4.4256,-4.4298,-4.4398,-4.4434,-4.4455,-4.45,-4.4547,-4.4588,-4.4622,-4.4629,-4.466,-4.4654,-4.4712,-4.4669,-4.475,-4.4707,-4.4732,-4.4744,-4.4747,-4.4754,-4.4706,-4.4786,-4.4918,-4.4933,-4.4759,-4.4758,-4.4756,0,-4.4332,-4.4413,-4.4483,-4.4504,-4.4548,-4.458,-4.46,-4.4632,-4.4662,-4.4701,-4.4721,-4.4766,-4.4791,-4.4826,-4.4832,-4.48,-4.4914,-4.4871,-4.4921,-4.4921,-4.4946,-4.4945,-4.5086,-4.496,-4.496,-4.496,-4.496,0,-4.444,-4.4501,-4.4518,-4.4562,-4.463,-4.4635,-4.4702,-4.4719,-4.4748,-4.4794,-4.4783,-4.4826,-4.4831,-4.4876,-4.488,-4.4947,-4.4958,-4.4965,-4.4966,-4.4967,-4.4967,-4.4984,-4.4979,-4.4964,-4.4963,-4.4962,-4.4962,0,-4.4536,-4.455,-4.4626,-4.4662,-4.4673,-4.4722,-4.4753,-4.4794,-4.4806,-4.4864,-4.4878,-4.4896,-4.4948,-4.4958,-4.5018,-4.5021,-4.5102,-4.5095,-4.5091,-4.509,-4.514,-4.5136,-4.5299,-4.5321,-4.518,-4.5181,-4.5182,0,-4.4605,-4.4652,-4.4694,-4.4725,-4.4747,-4.4797,-4.4828,-4.4833,-4.4866,-4.491,-4.4946,-4.4997,-4.5038,-4.5121,-4.5139,-4.5186,-4.5181,-4.5234,-4.5188,-4.5188,-4.5183,-4.5181,-4.5187,-4.5244,-4.5245,-4.5247,-4.5248,0,-4.4725,-4.473,-4.4776,-4.4825,-4.4862,-4.49,-4.4936,-4.4962,-4.4972,-4.5009,-4.5063,-4.5095,-4.5158,-4.5209,-4.5256,-4.5274,-4.5263,-4.5262,-4.5277,-4.5279,-4.5275,-4.5279,-4.5117,-4.5259,-4.5258,-4.5257,-4.5256,-4.5256,-4.4811,-4.4853,-4.489,-4.4941,-4.497,-4.5004,-4.5045,-4.5063,-4.5109,-4.5162,-4.5162,-4.5221,-4.5255,-4.5316,-4.5338,-4.5384,-4.5367,-4.5387,-4.5393,-4.5398,-4.5404,-4.5267,-4.5392,-4.5392,-4.5392,-4.5391,-4.5391,0,-4.4932,-4.4955,-4.5003,-4.5055,-4.5096,-4.5083,-4.5122,-4.5157,-4.521,-4.5243,-4.5284,-4.5347,-4.5396,-4.5419,-4.5468,-4.55,-4.5496,-4.5513,-4.5511,-4.5516,-4.5415,-4.5399,-4.5515,-4.5515,-4.5515,-4.5515,-4.5515,-4.5515,-4.5,-4.5071,-4.5081,-4.5166,-4.5188,-4.5248,-4.5272,-4.5303,-4.533,-4.5401,-4.5443,-4.5458,-4.5487,-4.5538,-4.5583,-4.5588,-4.5607,-4.5626,-4.5629,-4.5535,-4.5523,-4.5511,-4.5495,-4.563,-4.563,-4.5726,-4.5727,-4.5727]}]]